Flag for U.S.A. Weather past 2 weeks in Chattanooga, Tennessee, U.S.A.

Now
79 °F

Passing clouds.


Feels Like: 82 °F
Forecast: 72 / 82 °F
Wind: No wind

Location: Lovell Field

Current Time: Jul 24, 2014 at 12:08:02 AM

Latest Report: Jul 23, 2014 at 10:53 PM


Visibility: 10 mi

Pressure: 29.98 "Hg

Humidity: 79%

Dew point: 72 °F

Location of ChattanoogaLocation

Historic Weather in Chattanooga — Graph

°F

Chattanooga temperature yesterday

Maximum temperature yesterday: 90 °F (at 1:53 PM)
Minimum temperature yesterday: 71 °F (at 5:53 AM)
Average temperature yesterday: 80 °F

Past Weeks' High & Low Weather Summary

 TemperatureHumidityPressure
High94 °F (Jul 14, 4:53 PM)94% (Jul 21, 5:53 AM)30.20 "Hg (Jul 21, 5:53 AM)
Low60 °F (Jul 17, 4:53 AM)33% (Jul 11, 4:53 PM)29.83 "Hg (Jul 15, 4:53 PM)
Average77 °F71%30.03 "Hg
* Reported Jul 8 10:53 PM — Jul 23 10:53 PM, Chattanooga, Weather by CustomWeather, © 2014

Note: Actual official high and low records may vary slightly from our data, if they occured in-between our weather recording intervals... More about our weather records

Advertising

Chattanooga weather history for previous 24 hours

 ConditionsComfort  
Time TempWeatherWind HumidityBarometerVisibility
10:53 PM
Jul 23
79 °FPassing clouds.No wind79%29.98 "Hg10 mi
9:53 PM78 °FPassing clouds.3 mph79%29.97 "Hg10 mi
8:53 PM81 °FScattered clouds.3 mph72%29.96 "Hg10 mi
7:53 PM85 °FScattered clouds.7 mph61%29.94 "Hg10 mi
6:53 PM86 °FBroken clouds.5 mph59%29.96 "Hg10 mi
5:53 PM85 °FBroken clouds.6 mph61%29.96 "Hg10 mi
4:53 PM86 °FBroken clouds.7 mph59%29.98 "Hg10 mi
3:53 PM87 °FBroken clouds.7 mph57%29.99 "Hg10 mi
2:53 PM89 °FBroken clouds.6 mph50%30.01 "Hg10 mi
1:53 PM90 °FBroken clouds.8 mph48%30.03 "Hg10 mi
12:53 PM87 °FPartly sunny.5 mph53%30.05 "Hg10 mi
11:53 AM87 °FBroken clouds.3 mph57%30.07 "Hg10 mi
10:53 AM83 °FScattered clouds.No wind65%30.09 "Hg10 mi
9:53 AM79 °FScattered clouds.No wind74%30.09 "Hg10 mi
8:53 AM75 °FScattered clouds.No wind85%30.09 "Hg10 mi
7:53 AM73 °FFog.No wind88%30.09 "Hg3 mi
6:53 AM71 °FPassing clouds.No wind90%30.08 "Hg10 mi
5:53 AM71 °FFog.No wind93%30.07 "Hg5 mi
4:53 AM72 °FPassing clouds.No wind91%30.07 "Hg10 mi
3:53 AM73 °FClear.No wind88%30.05 "Hg10 mi
1:53 AM74 °FClear.No wind88%30.09 "Hg10 mi
12:53 AM74 °FClear.No wind88%30.09 "Hg10 mi
Weather by CustomWeather, © 2014

See weather overviewHow to use our weather pages